Address 0x30e4efb2638fa59e5c5db3384e61f89810bc4827 2

Txn Hash Method
Block
From
To
Value [Txn Fee]
0x1a10ea9bc79476a54ed99f8e6b9cabc96bff7a956d043ad106d2e3e63961a68bMint123819002021-09-15 7:49:198 days 23 hrs ago0x30e4efb2638fa59e5c5db3384e61f89810bc4827OUT 0x9ca1333110c791b2ce4c7aa2a65357c116d7deb10 BNB0.00022647
0xad7b72013e3afbad314fccf05f7ea7b480de63f9aa2ace534da53c52e8a804feApprove123818542021-09-15 7:47:018 days 23 hrs ago0x30e4efb2638fa59e5c5db3384e61f89810bc4827OUT 0x9ca1333110c791b2ce4c7aa2a65357c116d7deb10 BNB0.00044251
0x336d5fe8731d2654462c7753164d026b8a6a278e829b3c31c82d4f929a11f6bc0x267dd102123801452021-09-15 6:21:349 days 57 mins ago0x30e4efb2638fa59e5c5db3384e61f89810bc4827OUT 0xbd3e37ff1427dce2b7c7dfbc843aa9a42672c5290 BNB0.02898074
0xf63afd02b76e904487a80b1737cec960616fa408ac26466314d2c1acfb90fd85Transfer123795152021-09-15 5:50:049 days 1 hr ago0x30e4efb2638fa59e5c5db3384e61f89810bc4827OUT 0x45b83ba6c1f83c4a1c61df87d2265313672c643c0 BNB0.00051125
0xf95990009b9ece4ad8c92b655646627252e85b8b379a89ed40080fb26bf31ca60x64b51b60123795012021-09-15 5:49:229 days 1 hr ago0x30e4efb2638fa59e5c5db3384e61f89810bc4827OUT 0xbd3e37ff1427dce2b7c7dfbc843aa9a42672c5290.1 BNB0.06745579
0x8cfba5d2d9d2e1808d4b7cfddc8c29e420e8f89f15921558666eaa41301c4e64Set Completed116064442021-08-19 4:57:2636 days 2 hrs ago0x30e4efb2638fa59e5c5db3384e61f89810bc4827OUT 0xc90b8b882498bb69c8405786eacd258c67be61890 BNB0.00054676
0x56b442007d1ce684443d1e2be54d25414612d63053ec7b33d72cc9792ebc29dd0x60806040116064312021-08-19 4:56:4736 days 2 hrs ago0x30e4efb2638fa59e5c5db3384e61f89810bc4827OUT Contract Creation0 BNB0.0565036
0xa8a02ad61a2c78c859405f379e05d837ad11cb7df5a75203c8c632f137d0d4eaSet Completed116064272021-08-19 4:56:3536 days 2 hrs ago0x30e4efb2638fa59e5c5db3384e61f89810bc4827OUT 0xc90b8b882498bb69c8405786eacd258c67be61890 BNB0.00084676
0x95cff805c4ba319333bf77b1533abf1a25ab208c8258b9d7c2277cb67e54391b0x60806040116064122021-08-19 4:55:5036 days 2 hrs ago0x30e4efb2638fa59e5c5db3384e61f89810bc4827OUT Contract Creation0 BNB0.00383886
0x6f19c1d7d8845178232d41cac59de341977a6f7815e67aa2f2b1c1a552ed898eSet Completed116063932021-08-19 4:54:5336 days 2 hrs ago0x30e4efb2638fa59e5c5db3384e61f89810bc4827OUT 0xd8dfd7726a7bf3eb8783692afa3e2b44669a58000 BNB0.00084676
0x534ebcfceab11854b66227c8502b17b4a40dcb126d90ad74c54c4cc5600c09780x60806040116063782021-08-19 4:54:0836 days 2 hrs ago0x30e4efb2638fa59e5c5db3384e61f89810bc4827OUT Contract Creation0 BNB0.00383886
0xefd8d046aed9b0e986aaf8cb0577d78f6af4bc7ddf0f730b2171f390be568a29Set Completed115827602021-08-18 9:09:4036 days 22 hrs ago0x30e4efb2638fa59e5c5db3384e61f89810bc4827OUT 0x3e06cab92172eee8ffbd4099d02daa86ee3b38470 BNB0.00054676
0xd878e520454593161842f6aa7fd3dba76e37a231686629dd047a0bd8f7113b8b0x60806040115827462021-08-18 9:08:5836 days 22 hrs ago0x30e4efb2638fa59e5c5db3384e61f89810bc4827OUT Contract Creation0 BNB0.05648296
0x4fda26c551f96a3716bc385c65eec4797b9d12d9b94bc908880b49f9ae2c0bafSet Completed115827422021-08-18 9:08:4636 days 22 hrs ago0x30e4efb2638fa59e5c5db3384e61f89810bc4827OUT 0x3e06cab92172eee8ffbd4099d02daa86ee3b38470 BNB0.00084676
0xf8907fc4c2304a662b723b2aa90a6be9289449f5ae1c33b6f4b43996ea59158a0x60806040115827272021-08-18 9:08:0136 days 22 hrs ago0x30e4efb2638fa59e5c5db3384e61f89810bc4827OUT Contract Creation0 BNB0.00383886
0x438c084e3c38e02a14e8982db6b1b1eb3f569cbe9f69f00b7cb53af795dd36b3Set Completed115827042021-08-18 9:06:5236 days 22 hrs ago0x30e4efb2638fa59e5c5db3384e61f89810bc4827OUT 0xb01b8878bfc966aa8d15c86219ae770a61c6be8a0 BNB0.00084676
0x7933308c0c009258401e2e5e15d719cb4035296ea1b5f84399d7c97a1be4f60d0x60806040115826912021-08-18 9:06:1336 days 22 hrs ago0x30e4efb2638fa59e5c5db3384e61f89810bc4827OUT Contract Creation0 BNB0.00383886
0xe59ba2d9c6f4d3ec57d4a219363b429e2900e8b13dfa6177024ab4a8f9a1c27c0x60806040115826482021-08-18 9:04:0436 days 22 hrs ago0x30e4efb2638fa59e5c5db3384e61f89810bc4827OUT Contract Creation0 BNB0.00373926
0x480cd1ce4ee195bd9aa0ae71301cfb3a95b5c9de5fc3c8bd5a18f829b795202b0x60806040115821282021-08-18 8:38:0436 days 22 hrs ago0x30e4efb2638fa59e5c5db3384e61f89810bc4827OUT Contract Creation0 BNB0.00383886
0xd27c6d707e1386602d4523f739fef3a3a66b740dde85d808e3cb7089401d24d3Transfer115810842021-08-18 7:45:5236 days 23 hrs ago0x30e4efb2638fa59e5c5db3384e61f89810bc4827OUT0xdc2db86232a9e0200a6d90808b2ca8d91a8113ac1 BNB0.00021
0xe3613264d55a077711fe7b874875755e210d3438bc3f40cf620e8721035e6866Transfer90397822021-05-21 15:44:53125 days 15 hrs ago0x30e4efb2638fa59e5c5db3384e61f89810bc4827OUT0xe9f518f9c0ed20e5b47e51bcc515781d8613ff950.2 BNB0.00021
0x3bfd18c6293f524a74e0b38df05033882e40e32fb4e0e15fab916af92930b76fTransfer90393382021-05-21 15:22:41125 days 15 hrs ago0x30e4efb2638fa59e5c5db3384e61f89810bc4827OUT 0x52e16a186530ff7644483b2394fb7136011c24b50 BNB0.0008175
0x0c29227fa722ca66a55be6484139c323a2309a702e7440e35aa582296e5b0098Transfer90389702021-05-21 15:04:17125 days 16 hrs ago0x30e4efb2638fa59e5c5db3384e61f89810bc4827OUT 0x52e16a186530ff7644483b2394fb7136011c24b50 BNB0.00081738
0xfa08e933142c680919b751535861b3d01545c765518185d81ba5c40b5e351f58Set Max Tx Perce...90389082021-05-21 15:01:11125 days 16 hrs ago0x30e4efb2638fa59e5c5db3384e61f89810bc4827OUT 0x52e16a186530ff7644483b2394fb7136011c24b50 BNB0.00028592
0x75023ebed7f34331514649a753ba08569871c341811f156e9a41744efd335f25Transfer90388092021-05-21 14:56:14125 days 16 hrs ago0xaa25aa7a19f9c426e07dee59b12f944f4d9f1dd3 IN 0x30e4efb2638fa59e5c5db3384e61f89810bc48271 BNB0.000378
[ Download CSV Export 
Latest 1 internal transaction
Parent Txn Hash Block From To Value
0x336d5fe8731d2654462c7753164d026b8a6a278e829b3c31c82d4f929a11f6bc123801452021-09-15 6:21:349 days 57 mins ago 0xe8833697043b02da6b94eb5f1912d3889cf29ee50x30e4efb2638fa59e5c5db3384e61f89810bc48271.00842 BNB
[ Download CSV Export 
Loading

Contract Name:
0 BNB

Compiler Version
0

Optimization Enabled:
0 BNB

Other Settings:
-NA-
Block Transaction Gas Used Reward
Age Block Fee Address BC Fee Address Voting Power Jailed Incoming
Block Uncle Number Difficulty Gas Used Reward
Loading